| time (UTC) | temp F | wind direction | speed MPH | gust MPH | rain 1hr in | rain 24hr in | rain mn in | humidity % | barometer mb |
| 20260502221849 | 57 | 283 | 0.0 | 4.0 | 0.00 | 0.00 | 0.00 | 66 | 1025.2 |
| 20260502221345 | 57 | 0 | 2.0 | 4.0 | 0.00 | 0.00 | 0.00 | 67 | 1025.1 |
| 20260502220842 | 57 | 9 | 3.0 | 3.0 | 0.00 | 0.00 | 0.00 | 70 | 1025.2 |
| 20260502220338 | 57 | 341 | 2.0 | 2.0 | 0.00 | 0.00 | 0.00 | 71 | 1025.2 |
| 20260502215835 | 58 | 0 | 0.0 | 2.0 | 0.00 | 0.00 | 0.00 | 72 | 1025.3 |
| 20260502215333 | 57 | 284 | 3.0 | 5.0 | 0.00 | 0.00 | 0.00 | 73 | 1025.2 |
| 20260502214829 | 58 | 36 | 2.0 | 6.0 | 0.00 | 0.00 | 0.00 | 72 | 1025.0 |
| 20260502214326 | 58 | 17 | 5.0 | 8.0 | 0.00 | 0.00 | 0.00 | 72 | 1024.9 |
| 20260502213824 | 58 | 329 | 4.0 | 5.0 | 0.00 | 0.00 | 0.00 | 73 | 1025.0 |
| 20260502213321 | 58 | 282 | 3.0 | 6.0 | 0.00 | 0.00 | 0.00 | 73 | 1024.8 |
| 20260502212820 | 58 | 237 | 0.0 | 6.0 | 0.00 | 0.00 | 0.00 | 72 | 1025.0 |
| 20260502212317 | 58 | 257 | 2.0 | 9.0 | 0.00 | 0.00 | 0.00 | 72 | 1025.0 |
| 20260502211814 | 59 | 23 | 1.0 | 3.0 | 0.00 | 0.00 | 0.00 | 71 | 1025.0 |
| 20260502211310 | 59 | 319 | 2.0 | 5.0 | 0.00 | 0.00 | 0.00 | 72 | 1024.9 |
| 20260502210808 | 59 | 15 | 0.0 | 3.0 | 0.00 | 0.00 | 0.00 | 71 | 1025.0 |
| 20260502210305 | 59 | 22 | 2.0 | 3.0 | 0.00 | 0.00 | 0.00 | 71 | 1025.1 |
| 20260502205802 | 59 | 286 | 0.0 | 7.0 | 0.00 | 0.00 | 0.00 | 71 | 1025.1 |
| 20260502205258 | 59 | 43 | 4.0 | 5.0 | 0.00 | 0.00 | 0.00 | 71 | 1025.0 |
| 20260502204755 | 59 | 159 | 0.0 | 3.0 | 0.00 | 0.00 | 0.00 | 71 | 1024.8 |
| 20260502204252 | 59 | 90 | 2.0 | 3.0 | 0.00 | 0.00 | 0.00 | 71 | 1025.0 |
| 20260502203750 | 59 | 0 | 1.0 | 3.0 | 0.00 | 0.00 | 0.00 | 71 | 1024.9 |
| 20260502203248 | 59 | 7 | 1.0 | 3.0 | 0.00 | 0.00 | 0.00 | 72 | 1025.1 |
| 20260502202747 | 59 | 95 | 0.0 | 6.0 | 0.00 | 0.00 | 0.00 | 73 | 1024.9 |
| 20260502202245 | 59 | 26 | 1.0 | 2.0 | 0.00 | 0.00 | 0.00 | 74 | 1025.1 |
| 20260502201743 | 59 | 40 | 0.0 | 2.0 | 0.00 | 0.00 | 0.00 | 73 | 1025.0 |
| 20260502201239 | 58 | 9 | 2.0 | 4.0 | 0.00 | 0.00 | 0.00 | 72 | 1025.1 |
| 20260502200735 | 59 | 113 | 3.0 | 3.0 | 0.00 | 0.00 | 0.00 | 72 | 1025.1 |
| 20260502200231 | 59 | 109 | 3.0 | 5.0 | 0.00 | 0.00 | 0.00 | 74 | 1025.0 |
| 20260502195730 | 58 | 0 | 2.0 | 7.0 | 0.00 | 0.00 | 0.00 | 75 | 1025.0 |
| 20260502195226 | 58 | 103 | 3.0 | 6.0 | 0.00 | 0.00 | 0.00 | 74 | 1025.1 |
| 20260502194723 | 58 | 102 | 2.0 | 7.0 | 0.00 | 0.00 | 0.00 | 75 | 1025.1 |
| 20260502194220 | 58 | 110 | 5.0 | 5.0 | 0.00 | 0.00 | 0.00 | 75 | 1025.2 |
| 20260502193715 | 58 | 126 | 4.0 | 6.0 | 0.00 | 0.00 | 0.00 | 75 | 1025.2 |
| 20260502193213 | 58 | 166 | 3.0 | 6.0 | 0.00 | 0.00 | 0.00 | 75 | 1025.4 |
| 20260502192708 | 59 | 58 | 3.0 | 5.0 | 0.00 | 0.00 | 0.00 | 75 | 1025.5 |
| 20260502192206 | 59 | 128 | 4.0 | 7.0 | 0.00 | 0.00 | 0.00 | 76 | 1025.6 |
| 20260502191657 | 58 | 81 | 4.0 | 5.0 | 0.00 | 0.00 | 0.00 | 76 | 1025.2 |
| 20260502191155 | 58 | 138 | 3.0 | 7.0 | 0.00 | 0.00 | 0.00 | 77 | 1025.4 |
| 20260502190652 | 58 | 111 | 5.0 | 8.0 | 0.00 | 0.00 | 0.00 | 77 | 1025.5 |
| 20260502190150 | 57 | 55 | 5.0 | 5.0 | 0.00 | 0.00 | 0.00 | 77 | 1025.4 |
| 20260502185644 | 58 | 80 | 2.0 | 7.0 | 0.00 | 0.00 | 0.00 | 81 | 1025.5 |
| 20260502185141 | 59 | 69 | 3.0 | 3.0 | 0.00 | 0.00 | 0.00 | 81 | 1025.6 |
| 20260502184637 | 58 | 90 | 1.0 | 3.0 | 0.00 | 0.00 | 0.00 | 81 | 1025.8 |
| 20260502184133 | 57 | 48 | 0.0 | 3.0 | 0.00 | 0.00 | 0.00 | 81 | 1026.0 |
| 20260502183630 | 57 | 115 | 5.0 | 6.0 | 0.00 | 0.00 | 0.00 | 81 | 1025.8 |
| 20260502183126 | 58 | 110 | 2.0 | 5.0 | 0.00 | 0.00 | 0.00 | 82 | 1025.6 |
| 20260502182621 | 58 | 66 | 3.0 | 6.0 | 0.00 | 0.00 | 0.00 | 80 | 1025.8 |
| 20260502182117 | 57 | 21 | 0.0 | 5.0 | 0.00 | 0.00 | 0.00 | 80 | 1026.2 |
| 20260502181614 | 58 | 78 | 0.0 | 3.0 | 0.00 | 0.00 | 0.00 | 83 | 1026.1 |
| 20260502181108 | 56 | 74 | 2.0 | 4.0 | 0.00 | 0.00 | 0.00 | 83 | 1025.9 |
| 20260502180605 | 56 | 108 | 5.0 | 6.0 | 0.00 | 0.00 | 0.00 | 83 | 1026.0 |
| 20260502164013 | 56 | 283 | 1.0 | 5.0 | 0.00 | 0.00 | 0.00 | 85 | 1027.0 |
| 20260502163509 | 56 | 126 | 4.0 | 5.0 | 0.00 | 0.00 | 0.00 | 86 | 1027.0 |
| 20260502163006 | 55 | 77 | 6.0 | 7.0 | 0.00 | 0.00 | 0.00 | 87 | 1027.2 |
| 20260502162503 | 55 | 0 | 0.0 | 5.0 | 0.00 | 0.00 | 0.00 | 89 | 1027.4 |
| 20260502162000 | 55 | 148 | 2.0 | 3.0 | 0.00 | 0.00 | 0.00 | 88 | 1027.6 |
| 20260502161456 | 55 | 94 | 3.0 | 5.0 | 0.00 | 0.00 | 0.00 | 89 | 1027.5 |
| 20260502160955 | 55 | 104 | 3.0 | 7.0 | 0.00 | 0.00 | 0.00 | 88 | 1027.9 |
| 20260502160452 | 55 | 101 | 5.0 | 6.0 | 0.00 | 0.00 | 0.00 | 88 | 1027.6 |
| 20260502151941 | 55 | 22 | 2.0 | 3.0 | 0.00 | 0.00 | 0.00 | 90 | 1027.2 |
| 20260502151438 | 55 | 29 | 3.0 | 5.0 | 0.00 | 0.00 | 0.00 | 88 | 1027.1 |
| 20260502150935 | 55 | 106 | 0.0 | 5.0 | 0.00 | 0.00 | 0.00 | 88 | 1027.3 |
| 20260502150432 | 55 | 6 | 4.0 | 5.0 | 0.00 | 0.00 | 0.00 | 87 | 1027.1 |
| 20260502130318 | 54 | 24 | 2.0 | 4.0 | 0.00 | 0.00 | 0.00 | 83 | 1026.5 |
| 20260502123803 | 54 | 0 | 2.0 | 5.0 | 0.00 | 0.00 | 0.00 | 84 | 1026.4 |
| 20260502123300 | 54 | 28 | 4.0 | 5.0 | 0.00 | 0.00 | 0.00 | 83 | 1026.6 |
| 20260502122757 | 54 | 270 | 1.0 | 4.0 | 0.00 | 0.00 | 0.00 | 85 | 1026.5 |
| 20260502122253 | 54 | 332 | 2.0 | 10.0 | 0.00 | 0.00 | 0.00 | 84 | 1026.4 |
| 20260502121751 | 54 | 0 | 2.0 | 4.0 | 0.00 | 0.00 | 0.00 | 85 | 1025.9 |
| 20260502121249 | 54 | 189 | 0.0 | 5.0 | 0.00 | 0.00 | 0.00 | 85 | 1026.0 |
| 20260502120745 | 53 | 117 | 0.0 | 4.0 | 0.00 | 0.00 | 0.00 | 87 | 1026.1 |
| 20260502120242 | 53 | 29 | 2.0 | 4.0 | 0.00 | 0.00 | 0.00 | 88 | 1026.1 |
| 20260502115740 | 53 | 70 | 2.0 | 4.0 | 0.00 | 0.00 | 0.00 | 87 | 1026.2 |
| 20260502115237 | 53 | 140 | 0.0 | 4.0 | 0.00 | 0.00 | 0.00 | 87 | 1026.1 |
| 20260502114732 | 53 | 41 | 2.0 | 6.0 | 0.00 | 0.00 | 0.00 | 87 | 1026.3 |
| 20260502114230 | 53 | 61 | 5.0 | 5.0 | 0.00 | 0.00 | 0.00 | 87 | 1026.0 |
| 20260502113727 | 53 | 13 | 5.0 | 5.0 | 0.00 | 0.00 | 0.00 | 87 | 1026.1 |
| 20260502113224 | 53 | 10 | 3.0 | 3.0 | 0.00 | 0.00 | 0.00 | 88 | 1026.2 |
| 20260502112722 | 53 | 350 | 0.0 | 4.0 | 0.00 | 0.00 | 0.00 | 88 | 1026.3 |
| 20260502112220 | 53 | 234 | 0.0 | 3.0 | 0.00 | 0.00 | 0.00 | 87 | 1026.2 |
| 20260502111717 | 53 | 18 | 3.0 | 7.0 | 0.00 | 0.00 | 0.00 | 86 | 1026.5 |
| 20260502111214 | 54 | 351 | 3.0 | 6.0 | 0.00 | 0.00 | 0.00 | 87 | 1026.3 |
| 20260502110712 | 53 | 351 | 4.0 | 5.0 | 0.00 | 0.00 | 0.00 | 88 | 1026.4 |
| 20260502110209 | 53 | 52 | 0.0 | 3.0 | 0.00 | 0.00 | 0.00 | 88 | 1026.5 |
| 20260502105707 | 54 | 331 | 0.0 | 3.0 | 0.00 | 0.00 | 0.00 | 87 | 1026.3 |
| 20260502105203 | 54 | 276 | 0.0 | 3.0 | 0.00 | 0.00 | 0.00 | 88 | 1026.3 |
| 20260502104701 | 54 | 354 | 1.0 | 3.0 | 0.00 | 0.00 | 0.00 | 86 | 1026.4 |
| 20260502104158 | 54 | 257 | 3.0 | 4.0 | 0.00 | 0.00 | 0.00 | 87 | 1026.4 |
| 20260502103655 | 54 | 109 | 0.0 | 4.0 | 0.00 | 0.00 | 0.00 | 85 | 1026.3 |
| 20260502103153 | 55 | 236 | 5.0 | 5.0 | 0.00 | 0.00 | 0.00 | 86 | 1026.3 |
| 20260502102650 | 55 | 312 | 2.0 | 5.0 | 0.00 | 0.00 | 0.00 | 86 | 1026.6 |
| 20260502102147 | 55 | 299 | 3.0 | 7.0 | 0.00 | 0.00 | 0.00 | 86 | 1026.4 |
| 20260502101645 | 55 | 286 | 2.0 | 3.0 | 0.00 | 0.00 | 0.00 | 87 | 1026.5 |
| 20260502101143 | 54 | 279 | 0.0 | 2.0 | 0.00 | 0.00 | 0.00 | 89 | 1026.3 |
| 20260502100641 | 54 | 261 | 2.0 | 3.0 | 0.00 | 0.00 | 0.00 | 90 | 1026.3 |
| 20260502100139 | 54 | 336 | 2.0 | 4.0 | 0.00 | 0.00 | 0.00 | 91 | 1026.6 |
| 20260502091113 | 53 | 270 | 0.0 | 0.0 | 0.00 | 0.00 | 0.00 | 97 | 1026.5 |
| 20260502090610 | 53 | 270 | 0.0 | 0.0 | 0.00 | 0.00 | 0.00 | 96 | 1026.4 |
| 20260502090107 | 53 | 337 | 0.0 | 0.0 | 0.00 | 0.00 | 0.00 | 96 | 1026.2 |
| 20260502071504 | 52 | 173 | 0.0 | 0.0 | 0.00 | 0.00 | 0.00 | 98 | 1025.7 |
| 20260502071002 | 52 | 168 | 1.0 | 1.0 | 0.00 | 0.00 | 0.00 | 98 | 1025.5 |
| 20260502070500 | 52 | 8 | 0.0 | 0.0 | 0.00 | 0.00 | 0.00 | 98 | 1025.7 |
| 20260502065958 | 52 | 352 | 0.0 | 0.0 | 0.00 | 0.00 | 0.00 | 99 | 1025.6 |
| 20260502065456 | 52 | 0 | 0.0 | 0.0 | 0.00 | 0.00 | 0.00 | 99 | 1025.4 |
| 20260502064954 | 52 | 0 | 0.0 | 0.0 | 0.00 | 0.00 | 0.00 | 99 | 1025.8 |
| 20260502064452 | 52 | 0 | 0.0 | 0.0 | 0.00 | 0.00 | 0.00 | 99 | 1025.7 |
| 20260502063949 | 52 | 279 | 0.0 | 0.0 | 0.00 | 0.00 | 0.00 | 99 | 1025.7 |
| 20260502063447 | 52 | 279 | 0.0 | 0.0 | 0.00 | 0.00 | 0.00 | 99 | 1025.7 |
| 20260502062944 | 52 | 279 | 0.0 | 0.0 | 0.00 | 0.00 | 0.00 | 98 | 1025.6 |
| 20260502062441 | 52 | 165 | 0.0 | 0.0 | 0.00 | 0.00 | 0.00 | 98 | 1025.7 |
| 20260502061940 | 52 | 195 | 0.0 | 0.0 | 0.00 | 0.00 | 0.00 | 98 | 1025.7 |
| 20260502061437 | 52 | 209 | 0.0 | 2.0 | 0.00 | 0.00 | 0.00 | 98 | 1025.8 |
| 20260502060933 | 52 | 203 | 0.0 | 0.0 | 0.00 | 0.00 | 0.00 | 98 | 1025.8 |
| 20260502060428 | 52 | 195 | 0.0 | 1.0 | 0.00 | 0.00 | 0.00 | 98 | 1025.7 |
| 20260502055925 | 52 | 8 | 0.0 | 0.0 | 0.00 | 0.00 | 0.00 | 98 | 1025.6 |
| 20260502055424 | 52 | 8 | 0.0 | 0.0 | 0.00 | 0.00 | 0.00 | 97 | 1025.7 |
| 20260502054923 | 52 | 8 | 0.0 | 0.0 | 0.00 | 0.00 | 0.00 | 97 | 1025.7 |
| 20260502054420 | 53 | 8 | 0.0 | 0.0 | 0.00 | 0.00 | 0.00 | 97 | 1025.8 |
| 20260502053918 | 53 | 15 | 0.0 | 1.0 | 0.00 | 0.00 | 0.00 | 97 | 1025.9 |
| 20260502053415 | 52 | 285 | 1.0 | 1.0 | 0.00 | 0.00 | 0.00 | 97 | 1026.1 |
| 20260502052912 | 52 | 180 | 0.0 | 0.0 | 0.00 | 0.00 | 0.00 | 97 | 1025.9 |
| 20260502052411 | 52 | 195 | 0.0 | 0.0 | 0.00 | 0.00 | 0.00 | 97 | 1026.1 |
| 20260502051908 | 53 | 195 | 0.0 | 1.0 | 0.00 | 0.00 | 0.00 | 97 | 1026.1 |
| 20260502051406 | 53 | 203 | 0.0 | 0.0 | 0.00 | 0.00 | 0.00 | 96 | 1026.0 |
| 20260502050903 | 52 | 195 | 0.0 | 0.0 | 0.00 | 0.00 | 0.00 | 97 | 1026.4 |
| 20260502050359 | 53 | 195 | 0.0 | 0.0 | 0.00 | 0.00 | 0.00 | 96 | 1026.2 |
| 20260502045856 | 52 | 203 | 1.0 | 1.0 | 0.00 | 0.00 | 0.00 | 96 | 1026.1 |
| 20260502045353 | 52 | 0 | 0.0 | 0.0 | 0.00 | 0.00 | 0.00 | 96 | 1026.5 |
| 20260502044850 | 52 | 0 | 0.0 | 0.0 | 0.00 | 0.00 | 0.00 | 96 | 1026.6 |
| 20260502044346 | 53 | 0 | 0.0 | 0.0 | 0.00 | 0.00 | 0.00 | 96 | 1026.3 |
| 20260502043843 | 53 | 0 | 0.0 | 0.0 | 0.00 | 0.00 | 0.00 | 96 | 1026.5 |
| 20260502043340 | 53 | 0 | 0.0 | 1.0 | 0.00 | 0.00 | 0.00 | 96 | 1026.5 |
| 20260502042834 | 53 | 82 | 0.0 | 0.0 | 0.00 | 0.00 | 0.00 | 96 | 1026.3 |
| 20260502042332 | 53 | 82 | 0.0 | 0.0 | 0.00 | 0.00 | 0.00 | 96 | 1026.4 |
| 20260502041829 | 53 | 82 | 0.0 | 0.0 | 0.00 | 0.00 | 0.00 | 95 | 1026.4 |
| 20260502041326 | 53 | 82 | 0.0 | 0.0 | 0.00 | 0.00 | 0.00 | 95 | 1026.6 |
| 20260502040823 | 53 | 99 | 0.0 | 1.0 | 0.00 | 0.00 | 0.00 | 95 | 1026.4 |
| 20260502040320 | 52 | 270 | 0.0 | 0.0 | 0.00 | 0.00 | 0.00 | 95 | 1026.7 |
| 20260502035816 | 53 | 270 | 0.0 | 0.0 | 0.00 | 0.00 | 0.00 | 95 | 1026.7 |
| 20260502035313 | 52 | 264 | 0.0 | 0.0 | 0.00 | 0.00 | 0.00 | 95 | 1026.7 |
| 20260502034811 | 53 | 264 | 0.0 | 0.0 | 0.00 | 0.00 | 0.00 | 95 | 1026.5 |
| 20260502034309 | 53 | 264 | 0.0 | 1.0 | 0.00 | 0.00 | 0.00 | 94 | 1027.0 |
| 20260502033807 | 53 | 261 | 0.0 | 0.0 | 0.00 | 0.00 | 0.00 | 93 | 1026.7 |
| 20260502033304 | 53 | 352 | 0.0 | 0.0 | 0.00 | 0.00 | 0.00 | 93 | 1026.7 |
| 20260502032801 | 53 | 243 | 1.0 | 2.0 | 0.00 | 0.00 | 0.00 | 93 | 1026.6 |
| 20260502032257 | 53 | 270 | 0.0 | 0.0 | 0.00 | 0.00 | 0.00 | 93 | 1026.5 |
| 20260502031755 | 53 | 270 | 0.0 | 0.0 | 0.00 | 0.00 | 0.00 | 93 | 1026.4 |
| 20260502031253 | 53 | 261 | 0.0 | 0.0 | 0.00 | 0.00 | 0.00 | 92 | 1026.7 |
| 20260502030751 | 53 | 270 | 0.0 | 1.0 | 0.00 | 0.00 | 0.00 | 92 | 1026.5 |
| 20260502030248 | 53 | 270 | 0.0 | 0.0 | 0.00 | 0.00 | 0.00 | 92 | 1026.7 |
| 20260502025746 | 53 | 0 | 0.0 | 0.0 | 0.00 | 0.00 | 0.00 | 91 | 1026.7 |
| 20260502025243 | 54 | 246 | 0.0 | 0.0 | 0.00 | 0.00 | 0.00 | 91 | 1026.7 |
| 20260502024741 | 54 | 249 | 0.0 | 0.0 | 0.00 | 0.00 | 0.00 | 90 | 1026.7 |
| 20260502024239 | 54 | 250 | 0.0 | 0.0 | 0.00 | 0.00 | 0.00 | 90 | 1026.9 |
| 20260502023737 | 54 | 250 | 0.0 | 0.0 | 0.00 | 0.00 | 0.00 | 89 | 1026.9 |
| 20260502023234 | 54 | 250 | 0.0 | 3.0 | 0.00 | 0.00 | 0.00 | 89 | 1026.9 |
| 20260502022732 | 54 | 353 | 0.0 | 0.0 | 0.00 | 0.00 | 0.00 | 90 | 1026.7 |
| 20260502022227 | 54 | 261 | 0.0 | 0.0 | 0.00 | 0.00 | 0.00 | 90 | 1027.0 |
| 20260502021725 | 54 | 261 | 0.0 | 0.0 | 0.00 | 0.00 | 0.00 | 89 | 1027.0 |
| 20260502021222 | 54 | 285 | 0.0 | 1.0 | 0.00 | 0.00 | 0.00 | 89 | 1026.6 |
| 20260502020719 | 54 | 0 | 0.0 | 0.0 | 0.00 | 0.00 | 0.00 | 88 | 1026.6 |
| 20260502020216 | 54 | 8 | 0.0 | 1.0 | 0.00 | 0.00 | 0.00 | 89 | 1027.0 |
| 20260502015714 | 54 | 270 | 0.0 | 0.0 | 0.00 | 0.00 | 0.00 | 88 | 1027.0 |
| 20260502015210 | 54 | 254 | 0.0 | 0.0 | 0.00 | 0.00 | 0.00 | 88 | 1026.6 |
| 20260502014708 | 55 | 254 | 0.0 | 1.0 | 0.00 | 0.00 | 0.00 | 87 | 1026.9 |
| 20260502014205 | 55 | 8 | 0.0 | 0.0 | 0.00 | 0.00 | 0.00 | 87 | 1026.5 |
| 20260502013701 | 55 | 8 | 0.0 | 0.0 | 0.00 | 0.00 | 0.00 | 87 | 1027.0 |
| 20260502013155 | 54 | 0 | 1.0 | 2.0 | 0.00 | 0.00 | 0.00 | 87 | 1026.9 |
| 20260502012654 | 54 | 328 | 0.0 | 1.0 | 0.00 | 0.00 | 0.00 | 87 | 1026.6 |
| 20260502012152 | 55 | 12 | 0.0 | 1.0 | 0.00 | 0.00 | 0.00 | 87 | 1026.6 |
| 20260502011648 | 54 | 194 | 0.0 | 1.0 | 0.00 | 0.00 | 0.00 | 87 | 1026.7 |
| 20260502011144 | 54 | 0 | 0.0 | 1.0 | 0.00 | 0.00 | 0.00 | 87 | 1026.6 |
| 20260502010642 | 54 | 0 | 0.0 | 1.0 | 0.00 | 0.00 | 0.00 | 86 | 1026.5 |
| 20260502010138 | 54 | 15 | 0.0 | 1.0 | 0.00 | 0.00 | 0.00 | 86 | 1026.4 |
| 20260502005635 | 54 | 29 | 0.0 | 0.0 | 0.00 | 0.00 | 0.00 | 85 | 1026.4 |
| 20260502005133 | 54 | 29 | 0.0 | 2.0 | 0.00 | 0.00 | 0.00 | 84 | 1026.3 |
| 20260502004628 | 54 | 90 | 0.0 | 2.0 | 0.00 | 0.00 | 0.00 | 85 | 1026.5 |
| 20260502004126 | 54 | 194 | 0.0 | 0.0 | 0.00 | 0.00 | 0.00 | 86 | 1026.5 |
| 20260502003624 | 55 | 194 | 0.0 | 0.0 | 0.00 | 0.00 | 0.00 | 84 | 1026.3 |
| 20260502003120 | 55 | 209 | 0.0 | 1.0 | 0.00 | 0.00 | 0.00 | 83 | 1026.1 |
| 20260502002616 | 55 | 114 | 0.0 | 2.0 | 0.00 | 0.00 | 0.00 | 82 | 1026.0 |
| 20260502002114 | 55 | 95 | 2.0 | 2.0 | 0.00 | 0.00 | 0.00 | 82 | 1025.8 |
| 20260502001612 | 56 | 90 | 0.0 | 2.0 | 0.00 | 0.00 | 0.00 | 82 | 1025.9 |
| 20260502001108 | 56 | 81 | 0.0 | 3.0 | 0.00 | 0.00 | 0.00 | 81 | 1025.9 |
| 20260502000607 | 56 | 45 | 0.0 | 2.0 | 0.00 | 0.00 | 0.00 | 81 | 1025.9 |
| 20260501235559 | 57 | 98 | 1.0 | 3.0 | 0.00 | 0.00 | 0.00 | 79 | 1025.9 |
| 20260501235055 | 57 | 176 | 2.0 | 3.0 | 0.00 | 0.00 | 0.00 | 78 | 1026.0 |
| 20260501234551 | 57 | 74 | 0.0 | 3.0 | 0.00 | 0.00 | 0.00 | 78 | 1026.0 |
| 20260501234049 | 58 | 254 | 1.0 | 2.0 | 0.00 | 0.00 | 0.00 | 77 | 1026.1 |
| 20260501233547 | 57 | 230 | 2.0 | 4.0 | 0.00 | 0.00 | 0.00 | 77 | 1025.9 |
| 20260501233044 | 58 | 197 | 2.0 | 2.0 | 0.00 | 0.00 | 0.00 | 78 | 1026.2 |
| 20260501232540 | 58 | 255 | 0.0 | 3.0 | 0.00 | 0.00 | 0.00 | 78 | 1026.0 |
| 20260501232037 | 59 | 123 | 2.0 | 2.0 | 0.00 | 0.00 | 0.00 | 77 | 1026.2 |
| 20260501231535 | 59 | 261 | 0.0 | 3.0 | 0.00 | 0.00 | 0.00 | 76 | 1025.9 |
| 20260501231033 | 59 | 14 | 0.0 | 4.0 | 0.00 | 0.00 | 0.00 | 76 | 1025.8 |
| 20260501230532 | 60 | 180 | 0.0 | 1.0 | 0.00 | 0.00 | 0.00 | 75 | 1025.9 |
| 20260501230029 | 59 | 334 | 0.0 | 3.0 | 0.00 | 0.00 | 0.00 | 75 | 1025.8 |
| 20260501225526 | 59 | 173 | 1.0 | 6.0 | 0.00 | 0.00 | 0.00 | 75 | 1026.0 |
| 20260501225022 | 60 | 180 | 2.0 | 3.0 | 0.00 | 0.00 | 0.00 | 74 | 1025.9 |
| 20260501224520 | 59 | 266 | 2.0 | 4.0 | 0.00 | 0.00 | 0.00 | 74 | 1026.0 |
| 20260501224017 | 59 | 33 | 0.0 | 4.0 | 0.00 | 0.00 | 0.00 | 74 | 1026.1 |
| 20260501223513 | 60 | 191 | 2.0 | 3.0 | 0.00 | 0.00 | 0.00 | 72 | 1026.0 |
| 20260501223009 | 60 | 48 | 0.0 | 4.0 | 0.00 | 0.00 | 0.00 | 71 | 1026.2 |
| 20260501222506 | 61 | 22 | 2.0 | 7.0 | 0.00 | 0.00 | 0.00 | 70 | 1026.3 |
| 20260501222003 | 61 | 78 | 2.0 | 4.0 | 0.00 | 0.00 | 0.00 | 70 | 1026.4 |